Overview Statistics Trail Chart Weather Telemetry Raw packets
 

This is the latest recevied weather packets stored in our database for station/object LA4M-10. If no packets are shown the sender has not sent any weather packets the latest 10 day(s).

<< 15 16 17 18 19 20 21 >>
Time Temp. Humidity Pressure Rain* Wind** Luminosity Snow
1788281923 12.78° C 100% 941.5 hPa - - - -
1788281023 12.78° C 100% 941.7 hPa - - - -
1788280122 13.33° C 100% 941.8 hPa - - - -
1788279222 13.33° C 100% 941.8 hPa - - - -
1788278322 13.33° C 100% 941.9 hPa - - - -
1788277422 14.44° C 100% 942 hPa - - - -
1788276522 14.44° C 100% 942.1 hPa - - - -
1788275622 14.44° C 97% 942.2 hPa - - - -
1788274722 15° C 94% 942.2 hPa - - - -
1788273822 15.56° C 90% 942.3 hPa - - - -
1788272922 15.56° C 82% 942.3 hPa - - - -
1788272022 15.56° C 89% 942.4 hPa - - - -
1788271122 15.56° C 86% 942.5 hPa - - - -
1788270221 15.56° C 80% 942.5 hPa - - - -
1788269319 16.11° C 82% 942.6 hPa - - - -
1788268419 16.67° C 81% 942.7 hPa - - - -
1788267519 17.22° C 79% 942.6 hPa - - - -
1788266619 16.67° C 82% 942.7 hPa - - - -
1788265719 16.11° C 86% 942.6 hPa - - - -
1788264819 16.67° C 81% 942.5 hPa - - - -
1788263919 16.67° C 85% 942.6 hPa - - - -
1788263018 15.56° C 94% 942.6 hPa - - - -
1788262118 16.11° C 99% 942.6 hPa - - - -
1788261218 15.56° C 100% 942.7 hPa - - - -
1788260318 16.11° C 100% 942.8 hPa - - - -

* Rain since midnight (hover to see other rain measurements)
** Current wind speed in m/s (hover to see current wind gust speed)